Precipitable_Water
0.46 0.46 0.44 0.44 0.42 0.42 0.40 0.40 0.38 0.38 0.38 0.38 0.38 0.36 0.36 0.34 0.32 0.30 0.28 0.28 0.28 0.26 0.26 0.26 0.26 0.24 0.24 0.24 0.26 0.26 0.26 0.26 0.26 0.28 0.28 0.28 0.28 0.28 0.30 0.30 0.30 0.30 0.30 0.32 0.32 0.32 0.32 0.32 0.34 0.34 0.34 0.34 0.34 0.32 0.30 0.30 0.30 0.30 0.30 0.30 0.32 0.32 0.32 0.32 0.32 0.32 0.32 0.32 0.32 0.32 0.32 0.34 0.34 0.34 0.36 0.36 0.38 0.38 0.38 0.40 0.38 0.38 0.40 0.38 0.38 0.38
0.46 0.44 0.42 0.42 0.42 0.40 0.40 0.40 0.38 0.38 0.38 0.38 0.38 0.36 0.34 0.32 0.32 0.30 0.28 0.28 0.28 0.26 0.26 0.24 0.24 0.24 0.24 0.24 0.24 0.24 0.26 0.26 0.26 0.28 0.28 0.28 0.28 0.30 0.30 0.30 0.30 0.30 0.30 0.32 0.32 0.32 0.32 0.34 0.34 0.34 0.32 0.30 0.30 0.30 0.30 0.30 0.30 0.30 0.30 0.32 0.32 0.32 0.32 0.32 0.32 0.32 0.32 0.30 0.30 0.32 0.32 0.32 0.32 0.32 0.32 0.34 0.36 0.36 0.36 0.36 0.36 0.36 0.36 0.34 0.34 0.36
0.44 0.44 0.42 0.42 0.42 0.40 0.40 0.38 0.38 0.38 0.38 0.38 0.38 0.38 0.34 0.32 0.30 0.30 0.28 0.28 0.28 0.26 0.26 0.26 0.24 0.24 0.24 0.24 0.24 0.24 0.26 0.26 0.26 0.26 0.28 0.28 0.28 0.30 0.30 0.30 0.30 0.30 0.30 0.32 0.32 0.32 0.32 0.32 0.32 0.32 0.28 0.30 0.30 0.30 0.30 0.30 0.30 0.30 0.30 0.30 0.30 0.30 0.30 0.30 0.30 0.30 0.30 0.30 0.30 0.30 0.30 0.30 0.32 0.32 0.32 0.32 0.32 0.32 0.32 0.32 0.32 0.32 0.34 0.34 0.34 0.34
0.42 0.42 0.42 0.42 0.42 0.40 0.38 0.38 0.38 0.38 0.38 0.38 0.38 0.38 0.36 0.34 0.32 0.30 0.28 0.28 0.26 0.26 0.26 0.26 0.24 0.24 0.24 0.24 0.24 0.24 0.26 0.26 0.28 0.28 0.28 0.28 0.28 0.28 0.30 0.30 0.30 0.32 0.32 0.32 0.32 0.32 0.32 0.30 0.30 0.30 0.28 0.30 0.30 0.30 0.30 0.30 0.30 0.30 0.30 0.30 0.30 0.30 0.30 0.30 0.28 0.28 0.28 0.28 0.28 0.28 0.28 0.28 0.30 0.30 0.30 0.30 0.32 0.32 0.32 0.32 0.32 0.32 0.34 0.34 0.34 0.34
0.42 0.42 0.42 0.40 0.40 0.40 0.40 0.38 0.38 0.38 0.38 0.38 0.38 0.38 0.36 0.34 0.32 0.30 0.30 0.28 0.28 0.26 0.26 0.26 0.24 0.24 0.24 0.24 0.24 0.24 0.26 0.26 0.28 0.28 0.28 0.28 0.28 0.30 0.30 0.30 0.30 0.32 0.32 0.32 0.32 0.32 0.30 0.28 0.28 0.28 0.28 0.28 0.30 0.30 0.30 0.30 0.30 0.30 0.28 0.30 0.30 0.28 0.28 0.28 0.28 0.26 0.26 0.26 0.26 0.26 0.28 0.28 0.28 0.28 0.30 0.30 0.30 0.30 0.32 0.32 0.32 0.32 0.32 0.34 0.34 0.34
0.40 0.42 0.40 0.40 0.38 0.38 0.38 0.38 0.38 0.38 0.38 0.38 0.38 0.36 0.36 0.34 0.32 0.30 0.30 0.28 0.28 0.26 0.26 0.26 0.26 0.24 0.24 0.24 0.24 0.26 0.26 0.26 0.28 0.28 0.28 0.28 0.30 0.30 0.30 0.30 0.30 0.32 0.32 0.30 0.30 0.30 0.28 0.28 0.28 0.28 0.28 0.28 0.28 0.28 0.28 0.28 0.28 0.28 0.28 0.28 0.28 0.28 0.28 0.28 0.26 0.26 0.26 0.26 0.26 0.26 0.26 0.28 0.28 0.28 0.30 0.30 0.30 0.30 0.30 0.32 0.32 0.32 0.32 0.32 0.32 0.32
0.40 0.40 0.40 0.40 0.40 0.38 0.38 0.38 0.40 0.40 0.38 0.38 0.38 0.36 0.36 0.34 0.32 0.30 0.30 0.28 0.28 0.26 0.26 0.26 0.26 0.26 0.26 0.26 0.26 0.26 0.26 0.28 0.28 0.28 0.28 0.28 0.30 0.30 0.30 0.30 0.30 0.30 0.30 0.28 0.28 0.28 0.28 0.28 0.28 0.28 0.28 0.28 0.28 0.28 0.28 0.28 0.28 0.28 0.28 0.28 0.28 0.28 0.26 0.26 0.26 0.26 0.26 0.26 0.26 0.26 0.26 0.26 0.28 0.28 0.28 0.30 0.30 0.30 0.30 0.30 0.30 0.30 0.30 0.32 0.32 0.30
0.40 0.40 0.40 0.40 0.38 0.38 0.38 0.38 0.40 0.40 0.38 0.38 0.36 0.36 0.36 0.34 0.34 0.32 0.30 0.30 0.28 0.28 0.26 0.26 0.26 0.26 0.26 0.26 0.26 0.26 0.26 0.26 0.28 0.28 0.28 0.28 0.28 0.28 0.30 0.28 0.28 0.28 0.28 0.26 0.26 0.28 0.28 0.28 0.28 0.28 0.28 0.28 0.28 0.28 0.26 0.26 0.28 0.28 0.26 0.26 0.26 0.26 0.26 0.26 0.26 0.24 0.24 0.26 0.26 0.26 0.26 0.26 0.28 0.28 0.28 0.28 0.30 0.30 0.30 0.30 0.30 0.30 0.30 0.30 0.30 0.32
0.40 0.40 0.40 0.38 0.38 0.38 0.38 0.38 0.38 0.40 0.40 0.38 0.36 0.36 0.34 0.34 0.32 0.30 0.30 0.30 0.28 0.28 0.26 0.26 0.26 0.24 0.26 0.26 0.26 0.26 0.26 0.28 0.28 0.28 0.28 0.28 0.28 0.28 0.28 0.26 0.26 0.26 0.26 0.26 0.26 0.26 0.26 0.26 0.26 0.26 0.28 0.26 0.26 0.26 0.26 0.26 0.26 0.26 0.26 0.26 0.26 0.26 0.26 0.26 0.24 0.24 0.24 0.24 0.24 0.26 0.26 0.26 0.28 0.28 0.28 0.30 0.30 0.30 0.30 0.30 0.30 0.30 0.32 0.32 0.32 0.34
0.40 0.40 0.38 0.40 0.40 0.38 0.38 0.38 0.38 0.40 0.40 0.38 0.38 0.36 0.36 0.34 0.32 0.30 0.28 0.28 0.28 0.28 0.26 0.26 0.24 0.24 0.26 0.26 0.26 0.26 0.28 0.28 0.28 0.28 0.28 0.28 0.28 0.28 0.28 0.28 0.26 0.26 0.26 0.26 0.26 0.26 0.26 0.26 0.26 0.26 0.26 0.26 0.26 0.26 0.24 0.26 0.26 0.26 0.26 0.26 0.26 0.26 0.24 0.24 0.24 0.24 0.24 0.24 0.24 0.26 0.26 0.26 0.28 0.28 0.28 0.30 0.30 0.30 0.32 0.32 0.32 0.32 0.32 0.34 0.34 0.34
0.40 0.40 0.38 0.40 0.40 0.40 0.38 0.38 0.40 0.40 0.40 0.38 0.38 0.36 0.36 0.34 0.32 0.30 0.28 0.26 0.26 0.26 0.26 0.26 0.26 0.26 0.26 0.26 0.26 0.28 0.28 0.28 0.28 0.28 0.30 0.30 0.28 0.28 0.28 0.26 0.26 0.26 0.26 0.24 0.24 0.24 0.24 0.24 0.24 0.24 0.24 0.24 0.24 0.24 0.24 0.24 0.24 0.24 0.24 0.24 0.24 0.24 0.24 0.24 0.24 0.24 0.24 0.24 0.24 0.26 0.26 0.28 0.28 0.30 0.30 0.30 0.30 0.32 0.30 0.32 0.32 0.32 0.30 0.32 0.32 0.30
0.40 0.38 0.38 0.38 0.38 0.40 0.40 0.38 0.38 0.38 0.38 0.38 0.36 0.34 0.36 0.36 0.34 0.32 0.30 0.26 0.26 0.26 0.24 0.26 0.26 0.26 0.28 0.28 0.28 0.28 0.28 0.28 0.28 0.28 0.28 0.28 0.28 0.28 0.26 0.26 0.24 0.24 0.24 0.24 0.24 0.24 0.24 0.24 0.24 0.24 0.24 0.24 0.24 0.24 0.24 0.24 0.24 0.24 0.24 0.24 0.24 0.24 0.24 0.24 0.24 0.24 0.24 0.24 0.26 0.26 0.28 0.28 0.28 0.30 0.30 0.30 0.30 0.30 0.30 0.30 0.30 0.30 0.30 0.30 0.30 0.32
0.38 0.38 0.38 0.38 0.38 0.38 0.38 0.38 0.38 0.38 0.36 0.36 0.34 0.34 0.34 0.34 0.34 0.32 0.30 0.28 0.26 0.26 0.26 0.26 0.26 0.26 0.28 0.28 0.28 0.28 0.28 0.28 0.28 0.28 0.28 0.26 0.26 0.26 0.26 0.24 0.24 0.24 0.24 0.22 0.22 0.22 0.22 0.22 0.22 0.22 0.22 0.22 0.22 0.22 0.22 0.22 0.22 0.24 0.24 0.24 0.24 0.24 0.24 0.24 0.24 0.24 0.24 0.24 0.26 0.26 0.28 0.28 0.28 0.30 0.30 0.30 0.30 0.30 0.30 0.30 0.30 0.30 0.32 0.32 0.32 0.32
0.38 0.38 0.38 0.38 0.38 0.38 0.38 0.36 0.36 0.36 0.36 0.36 0.36 0.34 0.34 0.34 0.34 0.30 0.28 0.28 0.26 0.26 0.26 0.26 0.26 0.28 0.30 0.30 0.30 0.30 0.30 0.30 0.28 0.28 0.28 0.26 0.26 0.24 0.24 0.22 0.22 0.22 0.22 0.22 0.22 0.22 0.22 0.22 0.22 0.22 0.22 0.22 0.22 0.22 0.22 0.22 0.22 0.22 0.24 0.24 0.24 0.24 0.24 0.24 0.24 0.24 0.24 0.26 0.26 0.26 0.28 0.28 0.28 0.28 0.30 0.30 0.30 0.30 0.30 0.30 0.32 0.32 0.32 0.32 0.32 0.32
0.38 0.38 0.36 0.36 0.36 0.36 0.36 0.36 0.36 0.34 0.34 0.36 0.36 0.36 0.36 0.36 0.34 0.32 0.30 0.28 0.26 0.26 0.26 0.26 0.28 0.28 0.30 0.30 0.32 0.32 0.30 0.30 0.28 0.28 0.28 0.26 0.26 0.24 0.24 0.22 0.22 0.22 0.22 0.22 0.22 0.22 0.22 0.22 0.22 0.22 0.22 0.20 0.20 0.20 0.20 0.22 0.22 0.22 0.24 0.24 0.24 0.24 0.24 0.24 0.24 0.24 0.24 0.26 0.26 0.26 0.28 0.28 0.28 0.30 0.30 0.30 0.30 0.30 0.30 0.30 0.30 0.30 0.30 0.30 0.30 0.30
0.38 0.38 0.36 0.36 0.36 0.36 0.36 0.36 0.36 0.36 0.36 0.36 0.36 0.36 0.36 0.34 0.32 0.32 0.30 0.28 0.26 0.26 0.26 0.26 0.26 0.28 0.30 0.32 0.32 0.32 0.30 0.30 0.28 0.28 0.26 0.24 0.24 0.24 0.24 0.24 0.22 0.22 0.22 0.22 0.22 0.22 0.22 0.22 0.22 0.22 0.20 0.20 0.20 0.20 0.20 0.22 0.22 0.22 0.24 0.24 0.24 0.24 0.24 0.24 0.24 0.24 0.24 0.24 0.26 0.26 0.26 0.28 0.28 0.28 0.28 0.30 0.30 0.30 0.30 0.30 0.30 0.30 0.30 0.30 0.30 0.30
0.38 0.36 0.36 0.36 0.36 0.36 0.36 0.36 0.36 0.36 0.36 0.36 0.36 0.36 0.34 0.34 0.32 0.30 0.28 0.28 0.26 0.26 0.26 0.26 0.26 0.26 0.26 0.28 0.28 0.30 0.32 0.28 0.28 0.26 0.26 0.24 0.24 0.24 0.24 0.24 0.22 0.22 0.22 0.22 0.22 0.22 0.22 0.22 0.22 0.22 0.20 0.20 0.20 0.20 0.20 0.22 0.22 0.24 0.24 0.24 0.24 0.24 0.24 0.24 0.24 0.24 0.24 0.24 0.26 0.26 0.26 0.28 0.28 0.28 0.28 0.30 0.30 0.30 0.30 0.30 0.30 0.30 0.32 0.32 0.32 0.32
0.38 0.38 0.36 0.36 0.36 0.36 0.36 0.36 0.36 0.36 0.36 0.36 0.36 0.36 0.36 0.34 0.34 0.32 0.28 0.28 0.26 0.26 0.28 0.28 0.26 0.26 0.26 0.26 0.26 0.28 0.30 0.30 0.28 0.28 0.26 0.26 0.24 0.24 0.24 0.24 0.24 0.22 0.22 0.22 0.22 0.22 0.22 0.22 0.22 0.20 0.20 0.20 0.20 0.20 0.20 0.22 0.22 0.24 0.24 0.24 0.24 0.24 0.24 0.24 0.24 0.24 0.24 0.24 0.26 0.26 0.26 0.28 0.28 0.28 0.28 0.28 0.30 0.30 0.30 0.30 0.30 0.30 0.30 0.30 0.32 0.30
0.38 0.38 0.38 0.36 0.36 0.36 0.36 0.36 0.36 0.36 0.36 0.36 0.34 0.34 0.34 0.34 0.32 0.32 0.30 0.28 0.28 0.28 0.28 0.28 0.28 0.26 0.26 0.26 0.28 0.30 0.30 0.30 0.30 0.28 0.26 0.26 0.24 0.24 0.26 0.24 0.24 0.24 0.22 0.22 0.22 0.22 0.22 0.22 0.20 0.20 0.20 0.20 0.20 0.20 0.22 0.22 0.22 0.24 0.24 0.24 0.24 0.26 0.26 0.24 0.24 0.24 0.24 0.24 0.24 0.26 0.26 0.26 0.28 0.28 0.28 0.28 0.30 0.30 0.30 0.30 0.30 0.30 0.30 0.28 0.28 0.28
0.38 0.38 0.38 0.38 0.36 0.36 0.36 0.36 0.36 0.36 0.36 0.36 0.36 0.34 0.34 0.32 0.32 0.30 0.28 0.28 0.28 0.28 0.28 0.28 0.28 0.28 0.28 0.28 0.30 0.30 0.32 0.30 0.30 0.28 0.26 0.24 0.24 0.24 0.26 0.24 0.24 0.24 0.22 0.22 0.22 0.22 0.22 0.22 0.20 0.20 0.20 0.20 0.20 0.20 0.20 0.22 0.22 0.24 0.24 0.24 0.26 0.26 0.26 0.24 0.24 0.24 0.24 0.24 0.24 0.24 0.26 0.26 0.28 0.28 0.28 0.30 0.30 0.28 0.28 0.28 0.28 0.28 0.28 0.28 0.28 0.28
0.38 0.38 0.38 0.38 0.36 0.36 0.34 0.36 0.36 0.36 0.36 0.36 0.36 0.34 0.34 0.32 0.30 0.30 0.28 0.28 0.28 0.28 0.28 0.28 0.28 0.28 0.30 0.30 0.30 0.30 0.32 0.32 0.30 0.28 0.28 0.26 0.26 0.24 0.26 0.26 0.24 0.24 0.22 0.22 0.22 0.22 0.22 0.22 0.20 0.20 0.20 0.20 0.20 0.20 0.22 0.22 0.22 0.24 0.24 0.24 0.26 0.26 0.26 0.26 0.24 0.24 0.24 0.24 0.24 0.24 0.24 0.24 0.26 0.26 0.28 0.28 0.28 0.28 0.28 0.28 0.28 0.28 0.28 0.28 0.28 0.28
0.38 0.38 0.38 0.38 0.36 0.36 0.36 0.36 0.36 0.38 0.38 0.36 0.36 0.34 0.34 0.32 0.32 0.30 0.30 0.28 0.28 0.28 0.28 0.28 0.28 0.30 0.32 0.32 0.32 0.32 0.32 0.32 0.30 0.28 0.26 0.26 0.24 0.24 0.26 0.26 0.26 0.26 0.24 0.22 0.22 0.22 0.22 0.22 0.20 0.20 0.20 0.20 0.20 0.20 0.22 0.22 0.22 0.24 0.24 0.24 0.26 0.26 0.26 0.26 0.24 0.24 0.24 0.22 0.24 0.24 0.24 0.24 0.26 0.26 0.28 0.28 0.28 0.28 0.28 0.28 0.28 0.28 0.28 0.28 0.28 0.28
0.38 0.38 0.38 0.38 0.38 0.38 0.38 0.38 0.38 0.38 0.38 0.38 0.36 0.36 0.34 0.32 0.32 0.30 0.30 0.30 0.30 0.30 0.30 0.30 0.32 0.32 0.32 0.32 0.32 0.34 0.34 0.32 0.32 0.30 0.28 0.24 0.24 0.24 0.26 0.26 0.26 0.24 0.22 0.22 0.22 0.22 0.22 0.22 0.20 0.20 0.20 0.20 0.20 0.20 0.22 0.22 0.22 0.24 0.24 0.24 0.26 0.26 0.26 0.24 0.24 0.24 0.24 0.22 0.22 0.24 0.24 0.24 0.26 0.26 0.26 0.28 0.28 0.28 0.28 0.28 0.28 0.28 0.28 0.28 0.28 0.30
0.40 0.38 0.38 0.38 0.38 0.38 0.38 0.38 0.38 0.38 0.38 0.38 0.38 0.38 0.36 0.34 0.34 0.34 0.32 0.32 0.32 0.34 0.34 0.34 0.34 0.34 0.32 0.32 0.32 0.32 0.32 0.34 0.34 0.32 0.30 0.26 0.26 0.26 0.28 0.26 0.24 0.24 0.22 0.22 0.22 0.22 0.22 0.20 0.20 0.20 0.20 0.20 0.20 0.20 0.22 0.22 0.22 0.24 0.24 0.24 0.24 0.24 0.26 0.24 0.24 0.24 0.24 0.24 0.22 0.22 0.22 0.24 0.24 0.24 0.26 0.26 0.26 0.28 0.28 0.28 0.28 0.28 0.28 0.28 0.28 0.28
0.40 0.40 0.38 0.38 0.38 0.38 0.38 0.38 0.38 0.38 0.38 0.38 0.38 0.38 0.38 0.36 0.36 0.36 0.34 0.34 0.34 0.34 0.34 0.32 0.32 0.32 0.30 0.32 0.32 0.32 0.32 0.32 0.32 0.32 0.30 0.28 0.26 0.26 0.28 0.26 0.26 0.24 0.22 0.22 0.22 0.22 0.22 0.20 0.20 0.20 0.20 0.20 0.20 0.22 0.22 0.22 0.24 0.24 0.24 0.24 0.24 0.24 0.24 0.24 0.24 0.24 0.24 0.22 0.22 0.22 0.22 0.22 0.24 0.24 0.26 0.26 0.26 0.28 0.28 0.28 0.28 0.28 0.28 0.28 0.28 0.28
0.42 0.42 0.40 0.40 0.40 0.40 0.40 0.40 0.40 0.40 0.40 0.40 0.40 0.38 0.38 0.38 0.36 0.36 0.36 0.36 0.34 0.34 0.32 0.30 0.30 0.30 0.30 0.30 0.30 0.30 0.30 0.32 0.32 0.30 0.28 0.28 0.26 0.26 0.26 0.26 0.24 0.24 0.22 0.22 0.22 0.22 0.22 0.20 0.20 0.20 0.20 0.20 0.20 0.22 0.22 0.22 0.22 0.22 0.24 0.24 0.24 0.24 0.24 0.24 0.24 0.24 0.24 0.22 0.22 0.22 0.22 0.22 0.22 0.24 0.24 0.26 0.26 0.26 0.28 0.28 0.28 0.28 0.28 0.28 0.28 0.28
0.44 0.42 0.42 0.42 0.42 0.42 0.42 0.40 0.40 0.40 0.40 0.40 0.40 0.40 0.38 0.38 0.36 0.34 0.34 0.34 0.34 0.34 0.32 0.30 0.28 0.28 0.30 0.30 0.30 0.28 0.30 0.30 0.30 0.30 0.30 0.28 0.28 0.26 0.26 0.26 0.24 0.24 0.22 0.22 0.22 0.22 0.22 0.20 0.20 0.20 0.20 0.20 0.20 0.22 0.22 0.22 0.22 0.22 0.22 0.24 0.24 0.24 0.24 0.24 0.24 0.24 0.22 0.22 0.22 0.22 0.22 0.22 0.22 0.24 0.24 0.26 0.26 0.26 0.26 0.28 0.28 0.28 0.28 0.28 0.28 0.28
0.46 0.44 0.44 0.42 0.42 0.42 0.42 0.42 0.42 0.42 0.42 0.42 0.42 0.42 0.40 0.40 0.36 0.34 0.34 0.34 0.34 0.34 0.32 0.30 0.30 0.28 0.28 0.28 0.28 0.28 0.30 0.30 0.30 0.30 0.32 0.30 0.28 0.26 0.26 0.26 0.26 0.24 0.24 0.22 0.22 0.22 0.22 0.20 0.20 0.20 0.20 0.20 0.20 0.20 0.22 0.22 0.22 0.22 0.22 0.22 0.24 0.24 0.24 0.24 0.24 0.24 0.22 0.22 0.22 0.22 0.22 0.22 0.22 0.22 0.24 0.24 0.26 0.26 0.26 0.28 0.28 0.28 0.28 0.28 0.28 0.28
0.46 0.46 0.44 0.44 0.44 0.44 0.44 0.44 0.42 0.42 0.42 0.44 0.44 0.44 0.44 0.44 0.40 0.36 0.36 0.36 0.36 0.34 0.32 0.32 0.30 0.30 0.30 0.30 0.30 0.30 0.28 0.30 0.32 0.32 0.32 0.30 0.26 0.26 0.26 0.26 0.24 0.24 0.22 0.22 0.22 0.22 0.22 0.20 0.20 0.20 0.20 0.20 0.20 0.20 0.20 0.22 0.22 0.22 0.22 0.22 0.22 0.22 0.24 0.24 0.24 0.24 0.22 0.22 0.22 0.20 0.20 0.20 0.22 0.22 0.22 0.24 0.24 0.26 0.26 0.28 0.28 0.28 0.28 0.28 0.28 0.28
0.42 0.44 0.46 0.44 0.46 0.46 0.46 0.44 0.44 0.44 0.46 0.46 0.46 0.46 0.46 0.46 0.44 0.42 0.40 0.38 0.38 0.36 0.34 0.32 0.32 0.32 0.30 0.30 0.28 0.28 0.26 0.28 0.30 0.32 0.32 0.28 0.26 0.26 0.26 0.24 0.24 0.24 0.22 0.22 0.20 0.20 0.20 0.20 0.20 0.20 0.20 0.20 0.20 0.20 0.20 0.22 0.22 0.22 0.22 0.22 0.22 0.22 0.22 0.22 0.22 0.22 0.22 0.22 0.20 0.20 0.20 0.20 0.20 0.22 0.22 0.24 0.24 0.26 0.26 0.28 0.28 0.28 0.28 0.28 0.28 0.28
0.40 0.40 0.42 0.42 0.44 0.44 0.44 0.44 0.46 0.46 0.46 0.48 0.48 0.48 0.48 0.46 0.46 0.44 0.42 0.40 0.38 0.36 0.34 0.32 0.32 0.32 0.30 0.28 0.28 0.26 0.24 0.28 0.30 0.32 0.32 0.28 0.26 0.26 0.24 0.24 0.22 0.22 0.24 0.22 0.20 0.18 0.18 0.18 0.18 0.20 0.20 0.20 0.20 0.20 0.20 0.22 0.22 0.22 0.22 0.22 0.22 0.22 0.22 0.22 0.22 0.22 0.22 0.22 0.20 0.20 0.20 0.20 0.20 0.20 0.22 0.22 0.24 0.24 0.26 0.26 0.28 0.28 0.28 0.28 0.28 0.28
0.38 0.38 0.38 0.40 0.40 0.42 0.42 0.44 0.44 0.44 0.44 0.44 0.46 0.46 0.46 0.44 0.44 0.44 0.42 0.40 0.38 0.34 0.34 0.32 0.32 0.30 0.30 0.28 0.26 0.26 0.26 0.28 0.30 0.32 0.30 0.26 0.26 0.24 0.24 0.22 0.22 0.22 0.22 0.22 0.20 0.18 0.16 0.18 0.18 0.18 0.20 0.20 0.20 0.20 0.20 0.22 0.22 0.22 0.22 0.22 0.22 0.22 0.22 0.22 0.22 0.22 0.22 0.20 0.20 0.20 0.20 0.20 0.20 0.20 0.20 0.22 0.22 0.24 0.26 0.26 0.28 0.28 0.28 0.28 0.28 0.28
0.38 0.38 0.38 0.40 0.40 0.42 0.42 0.42 0.44 0.42 0.42 0.42 0.42 0.44 0.44 0.42 0.42 0.42 0.40 0.40 0.36 0.34 0.32 0.32 0.32 0.30 0.30 0.28 0.28 0.26 0.26 0.28 0.30 0.30 0.30 0.28 0.26 0.24 0.24 0.22 0.22 0.22 0.22 0.22 0.22 0.20 0.18 0.18 0.18 0.18 0.20 0.20 0.20 0.20 0.20 0.22 0.22 0.22 0.22 0.20 0.20 0.20 0.22 0.22 0.22 0.22 0.22 0.20 0.20 0.20 0.20 0.18 0.18 0.18 0.18 0.20 0.22 0.22 0.24 0.26 0.26 0.28 0.28 0.28 0.28 0.28
0.38 0.38 0.38 0.40 0.40 0.40 0.40 0.42 0.42 0.40 0.40 0.40 0.40 0.42 0.42 0.40 0.38 0.38 0.36 0.36 0.34 0.34 0.32 0.32 0.30 0.30 0.28 0.28 0.28 0.26 0.26 0.28 0.28 0.30 0.30 0.28 0.26 0.24 0.24 0.22 0.22 0.22 0.22 0.20 0.20 0.20 0.20 0.20 0.20 0.20 0.20 0.20 0.20 0.20 0.20 0.20 0.22 0.22 0.22 0.20 0.20 0.20 0.20 0.22 0.22 0.22 0.22 0.20 0.20 0.20 0.18 0.18 0.18 0.18 0.18 0.18 0.20 0.22 0.22 0.24 0.26 0.28 0.28 0.28 0.28 0.28
0.38 0.38 0.38 0.40 0.38 0.38 0.38 0.40 0.40 0.40 0.40 0.40 0.40 0.40 0.40 0.38 0.36 0.34 0.34 0.34 0.34 0.32 0.34 0.32 0.32 0.30 0.30 0.28 0.26 0.26 0.26 0.28 0.30 0.30 0.30 0.28 0.26 0.24 0.24 0.22 0.22 0.22 0.20 0.20 0.20 0.20 0.20 0.20 0.20 0.20 0.18 0.18 0.18 0.20 0.20 0.20 0.20 0.22 0.22 0.22 0.22 0.22 0.22 0.22 0.22 0.22 0.20 0.20 0.20 0.18 0.18 0.18 0.18 0.18 0.18 0.18 0.20 0.20 0.22 0.22 0.24 0.26 0.26 0.28 0.28 0.28
0.38 0.38 0.38 0.38 0.38 0.38 0.38 0.38 0.38 0.38 0.38 0.38 0.38 0.38 0.38 0.36 0.34 0.34 0.32 0.32 0.32 0.34 0.34 0.34 0.32 0.32 0.32 0.30 0.30 0.28 0.28 0.30 0.30 0.30 0.30 0.28 0.26 0.24 0.24 0.22 0.22 0.22 0.20 0.20 0.20 0.20 0.20 0.20 0.20 0.20 0.18 0.18 0.18 0.18 0.18 0.20 0.20 0.20 0.20 0.20 0.22 0.22 0.22 0.22 0.22 0.22 0.22 0.20 0.20 0.18 0.18 0.18 0.18 0.18 0.18 0.18 0.18 0.20 0.20 0.22 0.24 0.24 0.26 0.26 0.28 0.28
0.36 0.36 0.38 0.38 0.38 0.36 0.36 0.36 0.38 0.38 0.38 0.38 0.38 0.38 0.36 0.36 0.34 0.34 0.34 0.32 0.34 0.34 0.34 0.34 0.34 0.34 0.34 0.34 0.32 0.32 0.32 0.32 0.30 0.30 0.30 0.28 0.28 0.26 0.24 0.24 0.24 0.22 0.22 0.22 0.22 0.20 0.20 0.20 0.20 0.18 0.18 0.18 0.18 0.18 0.18 0.18 0.20 0.20 0.20 0.20 0.20 0.22 0.22 0.22 0.22 0.22 0.22 0.20 0.20 0.18 0.18 0.18 0.18 0.16 0.18 0.18 0.18 0.20 0.20 0.20 0.22 0.24 0.24 0.26 0.26 0.26
0.36 0.36 0.36 0.36 0.36 0.36 0.36 0.36 0.38 0.38 0.38 0.38 0.36 0.36 0.36 0.36 0.34 0.34 0.34 0.34 0.34 0.34 0.34 0.34 0.34 0.34 0.34 0.34 0.34 0.34 0.34 0.32 0.32 0.30 0.30 0.30 0.28 0.26 0.26 0.24 0.24 0.24 0.22 0.22 0.22 0.22 0.20 0.20 0.18 0.18 0.18 0.18 0.18 0.18 0.18 0.18 0.18 0.18 0.20 0.20 0.20 0.22 0.22 0.22 0.22 0.22 0.22 0.20 0.20 0.18 0.18 0.18 0.18 0.16 0.16 0.16 0.18 0.18 0.18 0.18 0.20 0.22 0.22 0.24 0.24 0.26
0.34 0.34 0.36 0.36 0.36 0.36 0.36 0.36 0.36 0.38 0.38 0.38 0.36 0.36 0.36 0.36 0.34 0.34 0.34 0.34 0.34 0.36 0.34 0.34 0.34 0.34 0.36 0.36 0.36 0.34 0.34 0.34 0.32 0.30 0.30 0.30 0.28 0.26 0.26 0.24 0.24 0.24 0.24 0.24 0.24 0.22 0.22 0.20 0.18 0.18 0.18 0.18 0.18 0.18 0.18 0.18 0.18 0.18 0.18 0.20 0.20 0.20 0.20 0.22 0.22 0.22 0.22 0.20 0.20 0.20 0.18 0.18 0.16 0.16 0.16 0.16 0.16 0.16 0.18 0.18 0.20 0.20 0.22 0.24 0.24 0.24
0.34 0.34 0.36 0.36 0.38 0.38 0.38 0.38 0.38 0.38 0.38 0.38 0.38 0.38 0.36 0.36 0.34 0.34 0.34 0.34 0.34 0.36 0.36 0.36 0.36 0.36 0.36 0.36 0.36 0.36 0.34 0.34 0.32 0.32 0.32 0.30 0.30 0.28 0.26 0.26 0.24 0.24 0.24 0.24 0.24 0.24 0.22 0.22 0.22 0.20 0.20 0.18 0.18 0.18 0.18 0.18 0.18 0.20 0.20 0.18 0.18 0.18 0.20 0.22 0.22 0.22 0.22 0.20 0.20 0.18 0.18 0.16 0.16 0.16 0.16 0.16 0.16 0.16 0.18 0.18 0.18 0.20 0.22 0.22 0.22 0.22
0.34 0.34 0.36 0.36 0.38 0.38 0.38 0.38 0.38 0.38 0.38 0.38 0.36 0.36 0.36 0.34 0.34 0.34 0.34 0.34 0.34 0.34 0.36 0.36 0.36 0.36 0.34 0.36 0.36 0.34 0.32 0.32 0.32 0.32 0.32 0.30 0.30 0.28 0.28 0.26 0.24 0.24 0.24 0.24 0.24 0.24 0.24 0.22 0.22 0.20 0.20 0.20 0.20 0.18 0.18 0.18 0.20 0.20 0.18 0.18 0.18 0.20 0.20 0.22 0.22 0.22 0.22 0.20 0.20 0.20 0.18 0.18 0.16 0.16 0.16 0.16 0.16 0.16 0.18 0.18 0.18 0.20 0.22 0.22 0.24 0.22
0.36 0.36 0.36 0.36 0.36 0.38 0.38 0.38 0.38 0.38 0.38 0.36 0.36 0.34 0.34 0.34 0.34 0.32 0.32 0.32 0.32 0.32 0.34 0.34 0.34 0.34 0.32 0.32 0.32 0.32 0.32 0.32 0.32 0.32 0.30 0.30 0.28 0.28 0.26 0.26 0.24 0.24 0.24 0.24 0.24 0.24 0.24 0.22 0.22 0.22 0.22 0.20 0.20 0.20 0.18 0.18 0.18 0.20 0.20 0.18 0.18 0.20 0.20 0.20 0.20 0.22 0.22 0.20 0.20 0.20 0.18 0.18 0.16 0.16 0.16 0.16 0.16 0.18 0.18 0.18 0.20 0.20 0.22 0.22 0.22 0.24
0.36 0.36 0.36 0.36 0.38 0.38 0.38 0.38 0.38 0.38 0.36 0.36 0.36 0.34 0.34 0.34 0.34 0.34 0.32 0.32 0.32 0.32 0.32 0.32 0.32 0.32 0.30 0.28 0.28 0.28 0.28 0.30 0.30 0.30 0.30 0.28 0.28 0.28 0.26 0.26 0.24 0.24 0.24 0.24 0.24 0.22 0.24 0.24 0.22 0.22 0.22 0.22 0.20 0.20 0.18 0.18 0.18 0.18 0.20 0.20 0.18 0.18 0.18 0.20 0.20 0.20 0.20 0.20 0.20 0.18 0.18 0.16 0.16 0.16 0.16 0.16 0.16 0.16 0.16 0.18 0.18 0.20 0.20 0.20 0.22 0.22
0.36 0.36 0.36 0.38 0.38 0.38 0.38 0.38 0.38 0.36 0.36 0.36 0.36 0.34 0.34 0.36 0.36 0.34 0.34 0.32 0.32 0.32 0.32 0.32 0.32 0.30 0.28 0.28 0.28 0.28 0.28 0.28 0.30 0.30 0.30 0.28 0.26 0.26 0.26 0.24 0.24 0.24 0.24 0.24 0.24 0.22 0.22 0.22 0.22 0.22 0.22 0.22 0.22 0.20 0.18 0.18 0.18 0.18 0.18 0.20 0.20 0.18 0.18 0.18 0.20 0.20 0.20 0.20 0.20 0.18 0.18 0.18 0.18 0.16 0.16 0.16 0.16 0.16 0.16 0.16 0.18 0.18 0.18 0.20 0.22 0.22
0.38 0.38 0.38 0.38 0.38 0.38 0.36 0.36 0.36 0.36 0.36 0.36 0.36 0.36 0.36 0.36 0.36 0.34 0.34 0.32 0.32 0.30 0.30 0.30 0.30 0.28 0.26 0.26 0.26 0.26 0.26 0.26 0.28 0.28 0.28 0.28 0.26 0.26 0.24 0.24 0.24 0.24 0.24 0.24 0.24 0.24 0.22 0.22 0.22 0.22 0.22 0.22 0.22 0.20 0.20 0.18 0.18 0.18 0.18 0.18 0.20 0.20 0.20 0.20 0.20 0.20 0.20 0.20 0.18 0.18 0.18 0.18 0.18 0.16 0.16 0.16 0.16 0.16 0.16 0.16 0.16 0.16 0.16 0.18 0.20 0.22
0.38 0.38 0.38 0.38 0.36 0.36 0.36 0.36 0.36 0.36 0.36 0.36 0.36 0.36 0.36 0.34 0.34 0.34 0.32 0.32 0.30 0.30 0.30 0.30 0.30 0.28 0.26 0.26 0.26 0.26 0.24 0.26 0.26 0.26 0.26 0.26 0.26 0.26 0.26 0.24 0.24 0.24 0.24 0.24 0.24 0.24 0.24 0.24 0.22 0.22 0.22 0.22 0.20 0.20 0.20 0.18 0.18 0.18 0.18 0.18 0.20 0.20 0.20 0.20 0.20 0.20 0.20 0.20 0.18 0.18 0.18 0.18 0.18 0.16 0.16 0.14 0.14 0.14 0.14 0.16 0.16 0.16 0.16 0.18 0.20 0.22
0.38 0.36 0.36 0.36 0.36 0.36 0.36 0.36 0.36 0.36 0.34 0.34 0.36 0.36 0.36 0.34 0.34 0.32 0.32 0.32 0.30 0.30 0.30 0.30 0.28 0.28 0.26 0.26 0.26 0.24 0.24 0.24 0.24 0.24 0.24 0.24 0.24 0.24 0.24 0.24 0.24 0.24 0.24 0.24 0.24 0.26 0.24 0.24 0.24 0.24 0.22 0.20 0.20 0.18 0.20 0.18 0.18 0.18 0.18 0.18 0.18 0.20 0.20 0.20 0.20 0.20 0.20 0.20 0.20 0.18 0.18 0.18 0.16 0.16 0.14 0.14 0.14 0.14 0.14 0.14 0.16 0.16 0.16 0.18 0.18 0.20
0.38 0.36 0.36 0.36 0.36 0.36 0.36 0.36 0.36 0.34 0.34 0.34 0.34 0.34 0.34 0.32 0.32 0.32 0.30 0.30 0.30 0.30 0.30 0.28 0.28 0.26 0.26 0.26 0.24 0.24 0.24 0.22 0.22 0.22 0.24 0.24 0.24 0.24 0.24 0.22 0.22 0.24 0.24 0.24 0.24 0.24 0.26 0.26 0.24 0.24 0.24 0.22 0.20 0.18 0.18 0.18 0.18 0.18 0.18 0.18 0.18 0.18 0.18 0.20 0.20 0.20 0.20 0.20 0.20 0.18 0.18 0.18 0.16 0.16 0.14 0.14 0.14 0.14 0.14 0.14 0.14 0.16 0.16 0.18 0.20 0.20
0.38 0.36 0.36 0.36 0.36 0.36 0.34 0.34 0.34 0.34 0.34 0.32 0.32 0.32 0.32 0.32 0.32 0.32 0.30 0.30 0.30 0.28 0.28 0.28 0.26 0.24 0.24 0.24 0.24 0.24 0.22 0.22 0.22 0.22 0.22 0.22 0.22 0.22 0.22 0.22 0.22 0.22 0.22 0.24 0.24 0.24 0.24 0.24 0.26 0.24 0.24 0.22 0.20 0.20 0.18 0.18 0.18 0.20 0.20 0.20 0.20 0.20 0.20 0.20 0.20 0.20 0.20 0.20 0.20 0.18 0.18 0.18 0.18 0.16 0.16 0.14 0.14 0.12 0.12 0.12 0.14 0.14 0.16 0.18 0.20 0.20
0.38 0.36 0.36 0.36 0.36 0.34 0.34 0.34 0.34 0.34 0.32 0.32 0.32 0.30 0.30 0.30 0.32 0.32 0.30 0.30 0.30 0.28 0.28 0.26 0.26 0.24 0.24 0.24 0.24 0.24 0.22 0.22 0.22 0.22 0.22 0.22 0.22 0.22 0.22 0.20 0.20 0.20 0.20 0.22 0.20 0.20 0.22 0.22 0.24 0.22 0.24 0.24 0.22 0.20 0.20 0.18 0.18 0.18 0.18 0.20 0.20 0.20 0.20 0.20 0.20 0.20 0.20 0.20 0.20 0.18 0.18 0.18 0.18 0.18 0.16 0.14 0.14 0.12 0.12 0.12 0.12 0.14 0.14 0.18 0.18 0.20
0.36 0.36 0.36 0.36 0.36 0.34 0.34 0.34 0.34 0.32 0.32 0.32 0.30 0.30 0.30 0.30 0.30 0.30 0.30 0.30 0.28 0.28 0.28 0.26 0.26 0.24 0.24 0.22 0.22 0.22 0.22 0.20 0.20 0.20 0.20 0.20 0.20 0.20 0.20 0.20 0.18 0.18 0.18 0.18 0.18 0.18 0.18 0.18 0.18 0.18 0.18 0.22 0.24 0.22 0.22 0.20 0.20 0.18 0.18 0.18 0.20 0.20 0.20 0.20 0.20 0.20 0.20 0.20 0.20 0.18 0.18 0.18 0.18 0.16 0.16 0.16 0.14 0.12 0.12 0.12 0.12 0.14 0.16 0.16 0.18 0.20
Wind_Speed
34 34 33 33 33 33 34 34 34 34 35 35 35 35 36 36 36 37 37 37 37 37 37 37 37 38 38 38 38 38 39 39 39 39 39 39 39 39 39 39 39 40 40 41 41 41 42 42 42 43 43 44 44 45 45 46 46 46 46 47 47 47 48 48 49 49 50 50 51 51 52 53 53 54 55 56 56 57 58 59 59 60 61 62 62 63
34 34 33 33 33 34 34 35 35 35 35 35 35 35 36 36 36 37 37 37 37 37 37 37 38 38 38 38 39 39 39 39 39 39 39 39 39 39 39 39 39 40 40 41 41 41 42 42 42 43 43 44 44 45 45 45 46 46 46 46 47 47 48 48 49 49 50 51 51 52 52 53 54 54 55 56 57 58 59 59 60 61 62 63 63 64
33 33 33 34 34 34 35 35 35 35 35 36 36 36 36 36 36 36 36 37 37 37 38 38 38 38 39 39 39 39 39 39 39 39 39 39 39 39 39 39 39 40 40 41 41 41 42 42 43 43 43 44 44 44 45 45 45 46 46 46 47 47 48 48 49 50 50 51 52 52 53 54 54 55 56 57 57 58 59 60 60 61 62 63 63 64
33 33 33 34 34 35 35 35 35 36 36 36 36 36 36 36 36 36 37 37 37 38 38 38 39 39 39 39 39 39 40 40 40 40 39 39 39 39 39 39 40 40 40 41 41 42 42 42 43 43 43 43 44 44 44 45 45 46 46 47 47 48 48 49 49 50 51 51 52 53 53 54 55 55 56 57 58 58 59 60 60 61 62 62 63 63
33 33 33 34 34 35 36 36 36 36 36 36 36 36 37 37 37 37 37 37 38 38 38 39 39 39 39 39 40 40 40 40 40 40 40 39 39 39 39 39 40 40 41 41 41 41 42 42 42 43 43 43 43 44 44 45 45 46 46 47 47 48 48 49 49 50 51 51 52 53 54 54 55 56 56 57 58 58 59 60 60 61 61 62 62 63
33 33 34 34 34 35 35 36 36 36 36 36 37 37 37 37 37 37 37 37 38 38 39 39 39 39 40 40 40 40 40 40 40 40 40 40 39 39 39 40 40 40 41 41 41 41 42 42 42 42 43 43 43 43 44 44 45 46 46 47 47 48 48 49 50 50 51 51 52 53 54 54 55 56 56 57 57 58 58 59 60 60 61 61 62 62
34 34 34 34 35 35 36 36 36 36 36 37 37 37 37 37 37 38 38 38 38 38 39 39 40 40 40 40 40 40 40 40 40 40 40 40 40 40 40 40 40 40 41 41 41 41 42 42 42 42 42 42 43 43 44 44 45 46 46 47 47 48 48 49 49 50 51 51 52 53 54 54 55 55 56 57 57 57 58 58 59 59 60 60 61 61
34 34 34 35 35 36 36 36 36 36 37 37 37 37 38 38 38 38 38 38 39 39 39 39 39 40 40 40 40 40 40 40 40 40 40 40 40 40 40 40 40 41 41 41 41 41 41 41 41 42 42 42 43 43 44 45 45 46 46 47 47 48 48 49 49 50 51 51 52 53 53 54 55 55 56 56 56 57 57 58 58 59 59 60 60 61
35 35 36 36 36 36 36 37 37 37 37 37 37 38 38 38 38 38 38 39 39 39 39 39 39 40 40 40 40 40 40 40 40 40 40 40 40 40 40 40 40 41 41 41 41 41 41 41 41 41 42 42 43 43 44 45 45 46 46 47 47 48 48 49 49 50 51 51 52 53 53 54 55 55 55 56 56 56 57 57 58 58 59 59 60 60
36 36 36 37 37 36 36 37 37 37 37 38 38 38 38 38 38 39 39 39 39 39 39 39 39 39 39 40 40 40 40 40 40 40 40 40 40 40 40 40 41 41 41 41 41 41 41 41 41 41 42 42 43 43 44 45 45 45 46 47 47 48 48 49 49 50 51 51 52 53 53 54 54 55 55 55 56 56 57 57 58 58 59 59 59 60
36 37 37 37 37 37 37 37 37 37 37 38 38 39 39 39 39 39 39 39 39 39 39 39 39 39 39 39 39 39 39 40 40 40 40 40 40 41 41 41 41 41 41 41 41 41 40 41 41 41 42 42 43 43 44 44 45 45 46 46 47 48 48 49 49 50 51 51 52 53 53 54 54 55 55 55 55 56 56 57 57 58 58 59 59 59
36 36 36 37 37 37 37 37 37 38 38 38 38 39 39 39 39 39 39 39 39 39 39 39 39 39 39 38 38 39 39 39 39 39 40 40 40 41 41 41 41 41 41 41 40 40 40 40 41 41 42 42 43 43 44 44 45 45 46 46 47 47 48 49 49 50 51 51 52 53 53 53 54 54 54 54 55 55 56 56 57 57 58 58 58 58
36 36 36 36 36 36 37 37 37 37 38 38 38 39 39 39 38 39 39 40 39 39 39 39 39 39 39 38 38 38 39 39 39 39 39 39 40 40 40 40 40 40 40 40 40 40 40 40 41 41 41 42 42 43 43 44 45 45 46 46 47 47 48 48 49 50 50 51 52 52 53 53 53 53 53 54 54 55 55 56 56 56 57 57 57 57
36 36 36 36 36 36 37 37 37 37 38 38 39 39 39 38 38 38 39 39 39 39 38 38 39 39 39 39 39 39 39 39 39 39 39 39 39 39 39 39 39 39 39 39 39 39 39 40 40 40 41 42 42 43 43 44 44 45 46 46 47 47 48 49 49 50 50 51 52 52 52 52 52 52 53 53 53 54 55 55 55 55 55 55 55 55
36 36 36 36 36 36 37 37 37 38 38 39 39 39 39 38 38 38 39 39 39 38 38 38 39 39 39 39 38 38 38 38 39 39 39 39 39 39 38 38 39 39 38 38 38 39 39 39 40 40 41 41 42 43 43 44 44 45 45 46 47 47 48 49 49 50 50 51 51 52 52 52 52 52 52 52 53 53 54 54 54 54 54 54 54 54
36 36 36 36 37 37 37 37 38 38 39 39 39 38 38 38 38 38 38 38 38 38 38 38 38 39 39 38 38 38 37 38 38 38 39 39 38 38 38 38 38 39 38 38 38 39 39 39 40 40 41 41 42 43 43 43 44 45 45 46 47 47 48 48 49 50 50 51 51 51 51 51 51 51 51 52 52 52 53 53 53 53 53 52 52 52
36 36 37 37 37 38 38 38 38 38 39 39 39 39 38 38 38 38 38 38 38 37 37 37 37 37 37 37 37 36 36 36 37 38 38 38 38 38 38 38 38 39 39 38 38 38 38 39 39 40 41 41 42 42 43 43 44 44 45 46 46 47 48 48 49 49 50 50 51 51 51 50 50 50 50 51 51 51 52 52 52 51 51 50 50 50
37 37 37 38 38 38 38 38 38 39 39 39 39 39 39 38 38 38 38 38 38 37 37 37 37 36 36 36 36 35 35 35 36 37 38 38 38 38 37 37 38 38 38 38 38 38 38 39 39 40 41 41 42 42 43 43 44 44 45 45 46 47 47 48 49 49 50 50 50 50 50 50 49 49 50 50 50 50 51 50 50 50 49 48 48 48
38 38 38 38 38 39 39 39 39 39 39 39 39 39 39 38 38 38 38 38 38 38 37 37 37 37 37 37 36 36 35 36 37 38 38 39 38 38 37 37 37 38 38 38 38 38 38 39 40 40 41 41 42 42 42 43 43 44 44 45 46 47 47 48 48 49 49 50 50 49 49 49 49 49 49 49 50 50 50 49 49 48 47 47 46 46
39 39 39 39 39 39 39 40 40 39 39 39 39 38 38 38 38 38 38 38 38 38 38 38 38 38 37 37 37 37 36 36 37 38 38 38 38 37 37 36 37 37 38 38 38 38 38 39 39 40 40 41 41 41 42 42 43 43 44 45 46 46 47 47 48 48 49 49 49 49 49 48 48 48 49 49 49 49 49 48 47 46 45 44 44 44
39 39 39 39 39 39 40 40 40 40 39 39 38 38 38 38 38 38 38 38 37 37 38 38 38 38 38 38 37 37 37 37 37 37 38 38 38 37 36 36 36 37 38 38 38 38 38 38 39 39 40 40 40 41 41 42 43 43 44 45 45 46 46 47 47 48 48 48 48 48 48 48 48 48 48 48 48 48 47 46 45 44 43 42 42 42
40 40 40 40 40 40 40 40 40 40 39 39 38 38 38 38 38 38 37 37 37 37 38 38 38 38 38 38 38 37 37 37 37 37 37 37 37 37 36 35 36 37 37 37 37 37 38 38 38 39 39 40 40 41 41 42 42 43 44 44 45 45 46 46 47 47 48 48 48 48 48 47 48 48 48 47 47 47 46 44 43 42 41 40 40 40
41 41 41 41 41 41 41 40 40 39 39 39 38 38 38 38 37 37 37 37 37 38 38 38 39 39 39 38 38 38 37 37 37 37 37 37 37 37 36 35 35 36 37 37 37 37 37 38 38 38 39 39 40 40 41 42 42 42 43 44 44 45 45 46 46 47 47 47 47 47 47 47 47 47 47 46 46 45 44 43 41 40 39 39 39 39
42 42 41 41 41 41 41 40 39 39 39 38 38 38 38 38 38 38 37 38 38 38 38 39 39 39 38 38 38 38 38 37 37 37 37 37 37 37 36 35 35 36 37 37 37 37 37 37 38 38 38 39 40 40 41 41 42 42 42 43 43 44 44 45 46 46 47 47 47 47 47 47 47 46 46 45 45 44 42 41 40 39 38 38 38 38
42 42 42 41 41 41 41 40 39 39 38 38 38 38 38 38 38 38 38 38 38 38 38 38 38 38 38 38 37 37 37 37 36 36 36 36 37 37 36 35 35 36 37 37 37 37 37 37 37 37 37 38 39 40 40 41 41 41 42 42 43 43 44 44 45 46 46 46 46 46 46 46 46 45 45 44 43 42 41 39 38 37 37 37 37 37
42 42 42 42 42 42 41 41 40 40 39 38 38 38 38 38 38 38 38 38 38 37 37 38 38 38 38 37 37 37 37 36 36 36 36 36 37 37 36 36 35 36 37 37 37 36 37 37 37 37 37 38 39 39 40 40 40 40 41 41 42 43 43 44 45 45 46 46 46 46 45 45 45 45 44 43 42 41 39 38 37 36 36 36 35 35
44 43 43 43 43 42 42 41 41 40 40 39 38 38 37 37 37 37 38 37 37 37 37 37 37 37 37 37 37 36 36 35 35 35 36 36 37 37 36 36 35 36 37 37 37 36 36 36 36 36 37 37 38 38 39 39 39 39 40 41 42 42 43 43 44 44 45 45 45 45 44 44 44 44 43 42 41 39 38 36 36 35 34 34 33 33
44 44 44 43 43 43 42 41 41 40 40 39 39 38 37 37 37 37 38 37 37 37 37 37 37 37 36 36 36 36 36 35 35 35 35 36 36 36 36 36 36 36 36 37 37 36 36 36 36 36 37 37 37 37 37 38 38 39 40 40 41 42 42 43 43 44 44 44 44 44 44 44 43 43 42 41 40 38 36 35 34 33 32 31 31 31
43 43 43 43 42 42 41 40 40 40 39 39 39 38 38 37 37 37 37 37 37 37 37 38 37 37 36 37 37 36 36 36 35 35 35 35 36 36 36 36 36 36 36 36 36 36 36 35 35 36 36 36 36 36 36 36 37 38 39 40 41 41 41 42 42 43 43 43 44 43 43 43 42 42 41 40 38 36 34 33 32 30 29 29 29 30
42 41 41 41 40 40 39 38 38 38 38 38 38 38 38 37 37 37 37 36 36 36 37 37 37 37 36 36 36 35 35 35 35 34 34 34 35 36 36 36 36 36 35 36 35 35 35 35 35 35 35 35 35 35 35 36 36 37 38 39 40 40 40 41 41 42 43 43 43 43 42 42 41 41 40 38 36 34 32 31 29 28 27 27 28 29
42 41 40 39 38 37 36 36 36 36 36 37 37 37 37 37 37 37 37 37 36 36 36 36 36 36 36 35 34 34 33 34 33 33 33 34 35 36 36 36 36 36 35 35 35 34 34 34 34 34 34 34 35 35 35 36 36 37 37 38 38 38 39 40 40 41 42 42 42 42 41 41 40 39 38 36 34 32 30 29 27 26 26 27 28 29
41 41 40 39 38 37 36 36 35 35 36 36 36 37 37 38 38 38 38 38 38 38 37 37 37 37 36 36 35 34 34 33 33 33 33 34 35 36 35 36 36 36 36 35 35 35 34 34 34 35 34 35 35 35 35 35 36 36 36 37 37 37 38 39 40 40 41 41 41 41 41 40 39 38 37 35 32 30 28 27 26 26 25 26 27 29
40 40 40 39 39 38 37 37 37 37 37 38 38 39 39 40 40 40 41 40 40 40 39 39 38 38 38 37 37 37 36 35 35 34 34 35 35 36 36 36 36 36 36 36 36 36 35 35 36 36 36 35 35 35 35 35 35 35 36 36 36 37 37 38 38 39 40 40 40 40 40 39 38 37 35 33 30 28 27 26 26 26 26 26 27 28
38 38 39 39 38 38 38 38 38 38 38 39 39 40 40 40 41 41 41 41 40 40 40 39 39 39 38 38 38 38 38 37 36 35 35 35 36 36 36 36 36 36 36 36 36 36 36 36 36 36 36 36 35 35 34 35 35 35 35 35 36 36 37 37 37 38 39 39 39 39 38 37 36 35 34 31 29 27 26 26 26 27 27 27 27 28
35 36 36 37 37 37 37 38 38 38 38 38 38 38 39 39 39 40 40 40 39 39 39 39 39 39 39 39 38 38 38 37 36 35 35 35 36 36 36 36 36 36 36 36 36 36 36 36 37 36 36 36 35 35 34 34 34 34 35 35 35 36 36 36 37 38 38 38 38 38 37 36 35 34 32 30 28 27 26 27 27 27 28 28 28 28
34 34 34 35 35 35 36 36 36 36 36 36 36 36 37 37 38 38 38 38 38 38 38 39 39 39 39 39 39 38 37 36 35 35 35 36 36 36 37 37 37 36 36 36 36 36 36 36 37 37 36 36 35 35 34 34 34 34 34 35 35 35 36 36 36 37 37 38 38 37 37 36 34 33 31 29 28 27 27 27 27 27 28 28 28 28
33 33 33 33 34 34 35 35 35 35 35 35 35 35 36 36 36 36 36 37 37 37 38 38 39 39 39 39 38 38 37 36 35 35 36 36 37 37 37 37 37 37 36 36 37 37 37 36 37 36 36 35 35 34 34 34 34 34 34 35 35 35 35 35 35 36 36 37 37 37 36 35 34 32 30 28 27 27 27 27 27 27 27 27 28 29
32 33 33 33 33 34 34 34 34 34 34 34 34 34 35 35 35 35 36 36 37 37 37 37 38 38 38 38 38 38 37 36 36 36 36 37 37 37 38 38 38 38 37 37 37 37 37 36 36 36 35 35 35 35 35 35 35 35 35 35 35 35 35 35 35 35 35 36 37 37 36 35 34 32 30 28 27 26 26 26 26 26 27 27 28 28
32 33 33 33 33 33 33 33 33 33 33 33 33 33 33 34 34 35 35 36 36 36 37 37 37 37 38 38 38 37 37 37 36 37 37 37 37 38 38 38 39 38 38 38 37 37 37 37 36 35 35 35 36 36 36 35 35 35 35 35 35 35 34 34 34 34 35 35 36 36 36 35 34 31 29 27 26 26 26 26 26 26 26 26 27 28
32 32 33 33 33 33 33 33 33 32 32 32 32 32 32 33 33 34 35 35 35 36 36 36 37 37 37 37 37 37 37 37 37 37 37 37 38 38 38 38 39 39 39 38 38 38 38 37 37 37 37 36 36 36 36 35 35 35 35 35 35 34 34 34 34 34 34 35 35 35 35 35 33 31 29 27 27 26 27 26 26 26 26 26 27 27
32 32 32 32 32 32 32 32 32 32 32 31 31 31 32 32 33 33 34 34 35 35 35 36 36 36 36 36 36 36 36 37 37 38 38 38 38 38 38 38 39 39 39 39 38 38 38 38 38 38 37 37 37 37 37 36 35 35 35 35 35 35 35 34 34 33 34 34 34 35 35 35 33 31 29 27 27 27 27 27 27 27 26 26 26 26
31 31 31 31 31 31 32 32 32 31 31 31 31 31 31 32 32 33 33 34 34 35 35 35 35 35 36 36 36 36 36 37 37 38 38 39 39 39 39 39 39 39 38 39 39 38 38 38 38 37 37 37 37 37 36 36 36 35 35 35 36 36 35 34 33 32 33 33 34 34 35 34 33 31 29 28 27 27 27 27 27 27 26 26 26 26
31 31 31 30 31 31 31 31 31 31 31 31 31 31 32 32 32 33 33 34 34 34 34 34 35 35 35 35 36 36 36 37 37 38 38 39 39 39 39 39 39 38 38 38 38 38 38 38 38 37 37 37 37 37 36 36 36 35 35 35 35 35 34 33 33 32 32 33 33 34 34 34 33 31 29 28 27 27 27 27 27 27 26 26 26 26
30 30 30 30 30 30 30 30 31 31 31 31 31 32 32 32 32 33 33 33 34 34 34 34 34 34 35 35 36 36 36 37 37 37 38 38 38 38 38 38 38 38 38 38 38 38 38 38 37 37 37 37 37 37 36 36 36 35 35 35 35 34 34 34 33 33 33 33 33 33 33 33 32 31 29 28 28 27 27 27 27 27 26 26 26 26
31 31 31 30 30 30 30 30 31 31 31 32 31 31 32 32 32 33 33 33 33 33 33 33 33 34 34 35 35 36 36 36 36 36 37 37 37 37 37 37 37 37 38 38 38 37 37 37 37 37 37 37 36 36 36 36 36 36 35 35 35 35 35 34 33 33 32 32 32 32 33 33 32 31 29 28 28 28 27 27 27 27 26 26 25 25
31 30 30 30 29 29 30 30 31 31 31 31 31 31 32 32 32 32 33 33 33 33 33 33 33 34 34 35 35 36 36 36 36 36 35 35 35 35 36 36 36 37 37 37 37 37 37 37 37 37 37 37 37 37 36 36 36 36 36 35 35 35 35 34 33 32 32 32 32 32 32 32 32 31 29 29 28 28 28 28 27 27 26 26 25 25
29 29 29 28 28 29 29 29 30 30 30 30 31 31 32 32 32 32 32 33 33 33 33 34 34 34 35 36 36 36 36 36 36 35 35 35 34 34 35 35 36 36 36 37 37 37 37 37 37 37 36 36 36 36 36 36 35 35 35 35 35 35 34 33 33 32 31 31 31 32 32 32 31 30 30 29 29 29 28 28 27 27 26 26 25 25
27 27 27 27 27 27 28 28 28 29 29 30 31 31 32 32 32 32 32 32 33 33 34 34 34 35 36 36 36 37 36 36 36 36 35 34 34 34 34 34 35 36 36 36 37 37 37 37 37 37 37 36 36 36 36 36 35 35 35 35 34 34 34 33 33 32 31 31 31 31 31 31 31 30 30 29 29 29 28 28 27 27 26 25 25 25
26 26 26 26 26 27 27 28 28 29 30 30 31 31 31 31 32 32 32 32 33 33 33 34 35 35 36 37 37 37 37 36 36 35 35 34 34 33 34 34 34 35 35 36 36 36 37 37 37 37 37 36 36 36 36 36 35 35 34 34 34 33 33 33 32 32 31 30 30 30 30 30 30 30 30 29 29 29 29 28 28 27 26 25 25 24
27 26 26 27 27 27 28 28 28 29 30 30 30 30 30 31 31 31 32 32 33 33 34 34 35 36 36 37 37 37 36 36 36 35 35 34 33 33 33 34 34 34 35 35 35 35 35 36 36 37 37 36 36 35 35 35 35 34 34 33 33 33 33 33 32 31 31 30 30 30 30 31 31 30 29 29 29 29 29 29 28 27 26 25 25 24
27 27 27 27 27 27 27 28 28 28 28 28 29 29 29 30 31 31 32 32 33 34 34 35 36 36 37 37 37 37 36 36 35 35 34 34 33 33 33 33 34 34 34 34 34 34 34 34 34 35 35 35 35 34 34 34 33 33 33 32 32 32 32 32 32 31 31 30 30 30 30 31 31 30 29 28 28 28 28 29 29 28 26 25 25 25
Wind_Direction
266 265 264 263 262 263 264 265 267 268 270 271 271 272 272 273 274 275 276 276 277 278 278 279 280 280 281 282 282 282 282 283 283 283 283 284 284 285 285 285 285 284 284 284 283 283 283 283 284 284 284 285 285 285 285 285 285 285 285 285 285 285 285 285 285 285 285 285 284 284 284 284 284 283 283 283 282 282 282 281 281 281 280 280 280 280
265 264 263 262 262 263 264 265 267 268 270 271 272 272 273 274 275 275 276 277 277 278 278 279 280 280 281 282 282 282 282 283 283 283 283 284 285 285 285 285 285 284 284 284 283 283 283 284 284 284 285 285 285 285 286 286 286 286 286 286 286 286 286 286 286 286 286 286 286 286 285 285 285 284 284 284 283 283 283 283 282 282 281 281 281 280
263 263 262 262 262 263 264 266 267 269 270 271 272 273 274 274 275 276 277 277 277 278 278 279 279 280 281 281 282 282 282 282 283 283 283 284 285 285 285 285 285 284 284 283 283 283 283 284 284 285 285 285 286 286 286 286 287 287 287 287 287 287 287 287 287 287 287 287 287 287 287 286 286 286 285 285 284 284 284 283 283 283 282 282 281 280
262 261 261 262 262 263 265 266 268 270 271 272 273 273 274 275 275 276 277 277 278 278 278 279 279 280 281 281 282 282 282 282 283 283 284 284 285 285 285 285 285 284 284 283 283 283 283 284 284 285 285 286 286 286 286 287 287 288 288 288 288 288 288 288 288 288 288 289 288 288 288 288 287 287 286 286 285 285 285 284 284 283 283 282 281 281
261 261 261 262 263 264 265 267 268 270 271 272 273 274 274 275 276 277 277 277 278 278 278 279 279 279 280 281 281 282 282 282 282 283 284 284 285 285 285 285 285 284 284 283 283 283 284 284 285 285 285 286 286 287 287 288 288 288 289 289 289 289 289 289 289 289 290 290 290 289 289 289 288 288 287 287 286 286 285 285 284 284 283 282 282 281
261 261 262 263 264 265 266 267 269 270 272 273 273 274 275 275 276 277 277 278 278 278 278 279 279 279 280 280 281 281 281 282 282 283 284 284 284 285 285 284 284 284 283 283 283 284 284 284 285 285 286 286 286 287 288 288 289 289 289 289 290 290 290 290 290 291 291 291 291 290 290 290 289 289 288 288 287 287 286 285 285 284 283 283 282 281
262 262 263 264 264 265 266 267 269 270 271 272 274 274 275 276 276 277 277 278 278 278 279 279 279 279 279 280 280 280 281 281 282 283 283 284 284 284 284 284 284 284 284 284 284 284 284 285 285 285 286 286 287 288 289 289 290 290 290 290 290 291 291 291 291 292 292 292 291 291 291 290 290 289 289 288 288 287 287 286 285 284 284 283 282 282
263 263 263 264 265 266 266 267 269 270 271 272 273 274 275 276 276 277 277 278 278 278 279 279 279 279 279 279 279 280 280 281 282 283 283 284 284 285 285 284 284 284 284 284 284 284 285 285 285 285 286 287 288 289 290 290 291 291 291 291 291 291 292 292 292 292 292 292 292 292 292 291 291 290 290 289 289 288 287 286 286 285 284 283 282 282
263 264 264 264 264 265 266 267 269 270 271 272 273 274 275 276 277 277 277 278 278 278 278 279 279 279 279 279 279 279 280 281 281 282 283 284 284 285 285 284 284 284 284 284 284 284 285 285 285 286 287 288 289 290 290 291 291 292 292 292 292 292 293 293 293 293 293 293 293 293 293 292 292 291 290 290 289 288 288 287 286 285 284 284 283 282
263 264 264 264 264 265 266 267 269 270 271 272 273 274 274 275 276 277 277 278 278 278 278 278 278 279 279 279 279 279 279 280 281 281 282 283 284 284 284 284 284 284 284 284 284 285 285 285 286 286 287 289 290 291 291 292 292 292 293 293 293 293 294 294 294 294 294 294 294 294 293 293 292 292 291 291 290 289 288 287 287 286 285 285 284 283
263 264 264 265 265 266 266 268 269 270 271 272 273 274 274 275 275 276 277 278 278 278 278 278 278 278 279 279 279 279 280 280 281 281 282 283 283 283 283 283 283 283 284 284 284 284 285 285 286 287 288 289 290 291 292 292 293 293 294 294 294 294 295 295 295 295 295 295 295 295 294 294 293 293 292 291 291 290 289 288 287 287 286 285 285 284
264 264 264 265 265 266 267 268 269 270 271 272 273 273 274 274 275 276 276 277 277 278 278 278 278 278 278 279 279 279 280 280 281 282 283 283 283 283 284 283 283 283 283 284 284 284 285 285 286 287 289 290 291 292 292 293 293 294 294 295 295 295 296 296 296 296 296 296 296 295 295 294 294 293 293 292 291 290 289 289 288 287 287 286 285 284
264 264 265 265 266 266 267 268 269 270 270 271 271 272 273 274 275 275 275 276 277 277 277 278 278 278 278 278 279 279 280 280 281 282 283 283 284 284 284 283 283 283 283 284 284 284 285 286 287 288 289 290 291 292 293 294 294 294 295 295 295 296 296 296 296 296 297 297 296 296 296 295 295 294 293 292 291 291 290 289 289 288 287 286 285 285
264 265 265 265 266 266 267 268 269 269 270 270 271 273 274 274 275 275 275 276 276 277 277 277 278 278 278 278 278 279 280 280 281 282 283 283 283 284 283 283 283 283 283 283 284 284 285 286 287 288 290 291 292 293 293 294 294 295 295 296 296 296 297 297 297 297 297 297 297 297 296 296 295 294 294 293 292 291 291 290 289 289 288 287 286 285
264 264 265 265 266 266 267 267 268 269 270 271 272 273 274 274 274 274 275 275 276 277 277 277 277 278 278 278 279 279 280 280 281 282 282 283 283 283 282 282 282 282 283 283 284 284 285 286 288 289 290 291 292 293 294 294 295 295 296 296 296 297 297 297 297 298 298 298 298 297 297 296 296 295 294 293 293 292 291 291 290 290 289 288 287 286
264 264 264 265 266 266 267 267 268 269 270 271 271 272 272 273 273 274 274 275 276 276 276 276 277 277 278 279 279 279 280 280 281 281 282 283 283 283 281 281 281 282 282 283 283 284 286 287 288 289 290 291 292 293 294 294 295 296 296 297 297 297 297 298 298 298 298 298 298 298 297 297 296 296 295 294 293 293 292 292 291 290 289 288 287 285
264 264 264 265 266 266 267 267 268 268 270 270 271 271 271 272 273 274 274 274 275 275 275 275 276 277 278 279 280 280 280 280 281 281 282 283 283 282 281 280 281 281 282 283 284 285 286 287 288 289 290 291 292 293 294 294 295 296 297 297 297 298 298 298 298 298 299 299 299 299 298 298 297 296 296 295 294 294 293 292 291 291 290 288 287 285
263 263 264 265 265 266 267 267 267 268 269 270 270 271 271 272 273 273 273 273 273 273 274 274 275 276 278 279 280 280 280 280 281 282 282 283 283 282 281 281 281 281 282 283 284 285 286 287 288 289 290 291 292 292 294 295 296 296 297 297 298 298 298 299 299 299 299 299 300 299 299 299 298 297 296 296 295 294 293 293 292 291 290 289 287 286
263 263 264 264 265 266 266 267 267 268 268 269 270 271 271 272 272 272 272 272 272 272 273 274 275 276 277 278 279 280 281 281 281 282 283 283 282 282 282 281 281 282 282 283 284 285 286 287 288 289 289 290 291 292 294 295 296 297 297 298 298 299 299 299 299 300 300 300 300 300 300 299 299 298 297 297 296 295 294 294 293 292 290 288 287 286
264 264 264 265 265 266 266 266 267 268 268 269 270 270 271 271 271 271 271 271 272 272 273 274 275 276 277 278 279 281 281 282 282 282 283 282 282 282 282 282 282 282 283 283 284 285 286 287 288 288 289 290 291 293 294 295 296 297 298 298 299 299 299 300 300 300 300 300 301 301 300 300 300 299 298 297 297 296 295 294 293 292 290 288 286 285
264 265 265 265 265 265 266 267 267 268 268 269 269 270 270 270 271 270 271 271 271 272 273 274 274 276 277 278 279 280 281 282 282 282 283 282 282 282 282 282 282 282 283 283 284 285 286 286 287 288 289 290 291 293 294 295 296 297 298 298 299 299 300 300 301 301 301 301 301 301 301 301 300 300 299 298 297 297 296 295 293 292 289 287 286 285
265 265 266 265 265 265 266 267 267 268 268 268 268 268 269 270 270 270 270 271 271 272 273 274 275 276 277 278 279 280 281 281 281 282 283 283 282 282 283 283 282 282 282 283 284 285 285 286 287 288 289 290 292 293 294 295 296 297 298 299 299 300 300 301 301 301 301 301 302 302 302 301 301 300 300 299 298 297 297 295 293 291 289 287 286 286
265 266 266 265 265 265 266 267 267 268 268 267 267 268 269 269 269 270 270 271 272 273 274 275 276 277 277 278 279 280 281 281 281 282 283 283 283 283 283 283 282 282 282 283 284 285 285 286 287 288 290 291 292 293 294 295 296 297 298 299 300 300 301 301 302 302 302 302 302 302 302 302 302 301 300 299 299 298 297 295 293 291 289 288 287 286
265 265 265 265 265 265 266 266 267 267 267 267 268 268 269 269 270 270 271 272 273 274 276 277 277 277 277 277 278 279 280 281 282 282 282 283 283 283 283 282 282 282 282 283 284 285 286 286 288 289 290 291 292 293 294 295 296 297 298 299 300 301 301 302 302 302 302 303 303 303 303 302 302 301 301 300 299 298 297 295 293 291 289 288 287 286
264 264 265 265 265 265 265 265 265 266 266 267 267 268 269 269 270 270 271 273 274 275 276 276 276 276 277 277 278 280 281 282 282 282 282 282 282 282 282 282 281 282 282 283 284 285 286 287 288 289 290 291 292 293 294 295 296 297 298 299 300 301 301 302 302 303 303 303 303 303 303 303 302 302 301 300 300 299 297 295 293 291 289 288 287 286
264 264 264 263 263 263 263 263 264 264 265 266 267 268 268 269 270 271 271 272 273 274 274 275 275 276 277 279 280 281 283 283 282 281 281 281 282 281 281 281 281 282 283 284 285 286 286 287 288 290 290 291 292 293 294 295 296 297 298 299 300 301 302 302 303 303 304 304 304 304 303 303 303 302 301 301 300 299 297 294 292 291 289 288 286 284
263 262 262 262 261 261 261 261 262 263 263 264 265 266 268 269 270 270 271 272 272 273 273 274 275 277 278 279 281 282 283 283 282 281 280 280 280 281 281 281 282 283 284 285 286 286 286 287 288 290 290 291 292 293 294 294 295 296 298 299 300 301 302 303 303 304 304 304 304 304 304 303 303 302 302 301 300 299 296 294 292 291 289 287 285 283
263 262 261 261 260 260 260 260 261 261 262 263 264 265 266 268 268 269 270 271 272 272 273 274 276 277 279 280 281 282 283 283 282 280 279 279 279 280 281 282 283 284 285 286 286 286 286 287 288 290 290 291 292 293 293 294 295 296 298 299 300 301 302 303 304 304 304 305 305 304 304 304 303 303 302 301 300 298 296 294 292 290 288 285 283 281
264 263 261 261 260 259 259 259 260 260 261 262 263 264 265 267 268 269 271 272 272 272 273 274 276 277 279 280 282 282 283 282 281 280 279 279 279 281 282 283 284 285 286 286 286 286 286 287 288 290 291 291 292 293 293 294 295 296 298 299 300 301 302 303 304 304 305 305 305 305 305 304 304 303 303 302 300 298 296 294 292 289 286 283 282 281
264 264 263 262 261 260 260 260 260 261 261 262 263 264 265 267 268 269 271 272 273 273 274 275 277 278 280 281 283 283 283 282 281 280 279 279 280 281 283 284 284 284 285 286 286 287 287 287 288 290 290 291 292 293 293 294 295 296 298 299 300 301 302 303 304 304 305 305 305 305 305 305 304 304 303 302 300 298 295 293 290 287 284 282 281 280
263 263 263 263 262 262 262 262 262 262 263 264 264 265 266 267 268 270 272 273 274 275 276 277 278 279 280 282 283 283 283 282 282 281 280 280 280 282 283 283 284 284 284 284 286 287 288 289 289 290 290 291 292 292 293 294 295 296 298 299 300 301 302 303 303 304 305 306 306 306 306 306 305 304 303 302 299 296 293 290 287 284 281 280 280 280
262 261 262 262 262 262 262 263 263 264 265 266 266 267 267 268 269 270 272 273 274 276 277 278 279 280 280 281 281 282 282 283 282 281 281 281 281 282 283 283 283 284 284 283 284 285 287 289 290 290 290 291 292 292 293 294 295 296 297 299 300 301 302 303 304 304 305 306 306 306 306 306 305 304 303 301 298 294 290 287 284 281 280 279 279 279
262 261 260 261 261 261 262 263 264 265 266 267 267 267 268 268 269 271 272 273 274 275 276 277 278 279 279 279 279 279 280 281 281 281 281 281 282 282 283 283 283 284 284 283 283 284 285 287 289 290 290 291 291 292 293 294 295 296 297 298 300 301 302 303 304 304 305 306 307 307 307 307 306 305 303 300 296 291 287 284 282 280 278 278 278 279
261 260 260 260 260 261 262 263 265 266 267 267 267 268 268 269 270 271 272 273 274 274 274 275 275 276 277 277 278 278 279 280 281 281 281 281 281 282 283 283 283 284 284 284 283 284 284 286 287 289 290 291 291 292 293 294 294 295 297 298 300 301 302 303 303 304 305 306 307 307 307 307 306 305 302 299 294 289 285 282 280 279 278 277 278 278
261 260 260 260 260 261 262 263 265 266 267 267 267 268 268 269 270 271 272 273 274 274 274 273 273 274 275 276 277 277 278 280 280 281 281 281 281 282 283 283 283 283 283 283 283 284 285 285 287 288 290 291 292 292 292 293 294 295 297 298 299 301 302 302 303 304 305 306 306 307 307 307 306 305 302 297 292 286 283 281 280 279 278 277 277 277
261 260 260 261 261 261 262 263 264 265 266 267 267 268 269 270 271 272 273 273 273 273 273 273 273 273 274 274 275 277 278 280 281 281 281 281 281 282 283 283 283 283 282 282 283 283 284 285 286 288 289 291 292 292 293 293 294 295 296 298 299 300 301 302 303 303 304 305 306 307 307 307 307 304 300 295 289 285 282 280 279 279 278 278 277 277
260 261 261 261 261 262 262 263 264 265 266 266 267 268 270 271 272 272 273 273 273 273 273 273 273 273 274 274 275 276 277 279 280 281 281 282 282 282 282 283 283 282 281 281 282 283 284 285 286 287 289 290 291 292 293 293 294 295 296 298 299 300 301 302 302 303 303 304 305 306 307 307 306 304 299 293 288 283 281 279 279 279 278 278 278 277
260 260 261 261 261 261 262 263 264 265 266 267 268 269 270 271 272 272 273 273 273 273 273 274 274 274 274 274 275 276 277 278 280 281 282 282 282 282 282 282 282 281 280 280 281 282 283 284 286 287 288 289 290 291 292 293 294 295 296 297 299 299 300 301 302 302 303 304 305 306 306 307 306 303 298 292 286 281 279 278 278 278 278 278 278 278
260 260 260 260 261 261 262 263 264 265 266 267 269 270 271 272 272 272 273 273 273 274 274 274 275 275 275 275 275 276 277 278 280 281 282 282 281 281 281 281 280 280 280 280 280 281 282 283 285 286 288 289 290 290 291 292 293 294 296 297 298 299 300 301 301 302 303 303 304 305 306 306 306 303 297 291 284 280 278 277 277 277 278 278 279 279
260 260 261 261 261 262 263 264 265 266 267 269 270 271 272 272 273 273 273 274 274 275 275 275 276 276 276 276 276 277 278 279 280 281 282 281 281 280 280 279 279 279 279 279 279 280 281 282 283 285 286 288 289 290 290 291 292 293 295 296 297 298 299 300 301 302 302 303 303 304 305 306 305 302 296 289 283 279 277 276 276 276 277 277 278 278
260 260 261 261 262 263 264 265 266 267 268 270 271 272 272 273 273 274 274 274 275 275 275 276 276 276 277 277 277 278 279 280 281 281 281 281 280 280 279 279 279 279 279 279 279 279 280 281 282 284 285 286 287 288 289 290 291 292 294 295 296 297 299 300 300 301 302 302 303 303 304 305 304 301 296 289 282 277 274 273 273 274 275 275 275 276
260 261 261 262 263 264 265 266 267 268 269 270 271 272 272 273 274 274 274 275 275 275 275 276 276 277 278 278 279 280 281 281 282 281 280 280 279 279 279 278 278 278 278 278 278 279 279 280 282 283 284 285 286 287 288 289 290 291 292 293 295 297 298 298 300 301 301 302 302 303 303 303 303 300 294 288 281 276 273 272 271 271 272 272 273 274
261 261 262 263 264 265 266 267 267 268 269 271 271 272 273 274 274 274 274 274 274 275 276 276 277 278 279 280 281 282 282 282 281 281 280 280 279 279 279 278 278 277 277 277 278 278 279 280 280 282 283 284 285 286 287 288 289 290 291 292 294 295 296 298 299 301 301 301 301 302 302 302 301 298 293 286 280 275 272 271 270 270 270 271 272 273
263 263 263 264 265 265 266 266 267 268 269 270 272 273 274 274 274 274 274 274 275 276 277 278 279 279 280 281 281 282 282 282 281 281 280 280 279 279 279 278 277 277 276 276 277 278 279 279 280 281 282 283 284 285 285 286 287 289 290 291 292 293 294 296 298 300 300 300 300 301 301 301 300 297 292 286 280 275 272 270 269 269 269 270 271 272
265 265 265 264 264 263 263 264 265 267 269 270 272 273 274 274 274 274 275 276 277 278 278 279 280 280 280 280 281 282 283 283 282 282 281 281 279 279 278 278 277 276 276 275 276 277 278 279 280 281 282 282 283 283 284 285 286 287 289 290 291 292 293 295 297 298 298 299 299 300 300 300 299 296 291 285 280 276 272 270 269 269 269 269 270 270
266 266 266 265 264 263 262 263 265 267 268 270 271 273 274 274 274 275 275 277 278 279 279 279 279 280 280 281 282 283 284 284 284 283 282 281 280 279 278 277 276 276 275 275 275 276 277 278 279 280 281 281 282 282 282 283 285 286 287 289 290 291 293 294 295 296 297 298 298 299 300 300 298 295 290 285 281 276 272 269 268 267 267 268 268 269
266 266 266 265 264 264 264 264 265 267 268 269 271 272 274 274 275 276 277 278 278 279 279 279 279 280 281 282 283 284 285 285 284 284 283 282 280 279 278 277 276 276 275 275 275 276 276 277 278 279 279 280 281 281 282 282 283 284 286 288 289 290 291 293 294 295 296 296 297 298 299 299 297 294 290 285 281 277 272 269 267 266 265 266 266 267
266 266 265 265 265 265 265 266 267 268 269 270 272 273 274 275 276 277 278 278 279 279 280 280 281 282 282 283 284 285 285 285 284 284 283 282 280 279 278 277 277 276 276 275 275 275 276 276 276 277 277 278 279 280 281 282 282 283 285 287 288 289 290 291 292 294 295 296 296 297 298 298 296 294 290 286 281 277 273 269 266 264 263 263 264 265
265 265 265 266 266 266 267 268 269 269 270 272 273 274 275 276 277 277 278 279 279 280 280 281 282 283 284 284 285 285 285 284 284 284 283 282 281 280 278 278 277 277 276 276 276 276 276 276 276 275 276 276 277 278 280 281 282 283 284 285 286 287 288 289 291 293 294 295 296 297 297 297 296 293 289 285 280 276 273 269 266 263 262 261 262 262
265 265 266 266 267 268 269 270 270 271 272 273 274 275 277 278 278 279 279 280 280 281 281 282 283 284 284 285 285 285 285 284 284 283 283 282 281 280 279 278 277 277 277 277 276 276 277 277 276 276 275 274 275 276 278 279 281 282 282 283 284 285 287 288 290 291 293 294 295 297 297 297 296 293 288 283 278 275 271 268 265 263 261 260 260 261
264 265 266 267 268 269 270 271 272 272 273 275 276 277 278 279 279 280 280 280 281 281 282 283 283 284 284 285 285 285 285 284 284 283 282 282 281 280 279 278 277 277 277 277 277 277 277 277 277 276 275 274 273 273 275 277 279 280 281 281 283 284 286 287 289 290 292 293 295 296 297 296 295 293 288 282 277 273 269 266 264 262 260 259 260 260